Find USA 255

NORAD ID: 40101 Int'l Des: 2014-043 Owner: AFRL Country: US operational
HEOCIRCULAR

Live Position

Loading 3D Globe...

About USA 255

Description loading...

Upcoming Passes

Passes for default location (London). Set your location on the main map for personalized predictions.

Altitude History

Loading altitude history...

Two-Line Element Set

1 40101U 14043C 26103.29260802 -.00000156 00000-0 00000-0 0 9992
2 40101 9.0859 57.8993 0014455 329.5455 226.2593 0.98727124 24669
Epoch: Apr 13, 2026 • Age: 26 hours

Current Status

Altitude 36238.8 km
Velocity 3.06 km/s
Sub-Earth Point -6.68°S, 59.78°W
Launch Date Jul 28, 2014
Age 11.7 years
Type military

Technical Details

Classification Payload
Mass 70.00 kg
Dry Mass 70.00 kg
Total Mass 70.00 kg
Length 0.50 m
Diameter 0.50 m
Span 0.50 m
Shape Box + pan
Manufacturer OSCD
Bus Type ANGELS
Phase Status In Orbit
Owner/State AFRL/US

Most Searched